| time (UTC) | temp F | wind direction | speed MPH | gust MPH | rain 1hr in | rain 24hr in | rain mn in | humidity % | barometer mb |
| 20260906231109 | 66 | 306 | 12.0 | 15.0 | 0.00 | 0.00 | 0.00 | 69 | 1014.7 |
| 20260906230609 | 67 | 289 | 10.0 | 14.0 | 0.00 | 0.00 | 0.00 | 66 | 1014.9 |
| 20260906230108 | 67 | 309 | 10.0 | 14.0 | 0.00 | 0.00 | 0.00 | 66 | 1014.9 |
| 20260906225608 | 67 | 314 | 7.0 | 9.0 | 0.00 | 0.00 | 0.00 | 67 | 1014.9 |
| 20260906224608 | 66 | 346 | 8.0 | 12.0 | 0.00 | 0.00 | 0.00 | 67 | 1014.9 |
| 20260906224108 | 66 | 330 | 9.0 | 13.0 | 0.00 | 0.00 | 0.00 | 68 | 1014.9 |
| 20260906223608 | 66 | 329 | 9.0 | 12.0 | 0.00 | 0.00 | 0.00 | 67 | 1014.9 |
| 20260906223108 | 66 | 309 | 10.0 | 13.0 | 0.00 | 0.00 | 0.00 | 67 | 1015.1 |
| 20260906222609 | 66 | 316 | 8.0 | 12.0 | 0.00 | 0.00 | 0.00 | 67 | 1014.9 |
| 20260906222109 | 67 | 323 | 6.0 | 9.0 | 0.00 | 0.00 | 0.00 | 66 | 1014.9 |
| 20260906221609 | 67 | 313 | 7.0 | 10.0 | 0.00 | 0.00 | 0.00 | 65 | 1015.3 |
| 20260906221108 | 67 | 301 | 5.0 | 9.0 | 0.00 | 0.00 | 0.00 | 65 | 1015.3 |
| 20260906220608 | 67 | 328 | 7.0 | 9.0 | 0.00 | 0.00 | 0.00 | 65 | 1015.0 |
| 20260906220109 | 67 | 350 | 6.0 | 9.0 | 0.00 | 0.00 | 0.00 | 65 | 1014.9 |
| 20260906215109 | 67 | 332 | 5.0 | 8.0 | 0.00 | 0.00 | 0.00 | 65 | 1014.9 |
| 20260906214608 | 67 | 340 | 7.0 | 9.0 | 0.00 | 0.00 | 0.00 | 65 | 1015.1 |
| 20260906214108 | 67 | 352 | 6.0 | 10.0 | 0.00 | 0.00 | 0.00 | 65 | 1014.9 |
| 20260906213608 | 67 | 8 | 6.0 | 10.0 | 0.00 | 0.00 | 0.00 | 65 | 1014.9 |
| 20260906213108 | 66 | 352 | 3.0 | 7.0 | 0.00 | 0.00 | 0.00 | 64 | 1014.9 |
| 20260906212108 | 66 | 324 | 6.0 | 7.0 | 0.00 | 0.00 | 0.00 | 64 | 1015.3 |
| 20260906211109 | 66 | 336 | 5.0 | 6.0 | 0.00 | 0.00 | 0.00 | 65 | 1015.3 |
| 20260906210608 | 66 | 336 | 5.0 | 6.0 | 0.00 | 0.00 | 0.00 | 65 | 1014.9 |
| 20260906210108 | 65 | 10 | 3.0 | 7.0 | 0.00 | 0.00 | 0.00 | 65 | 1015.2 |
| 20260906205609 | 65 | 40 | 5.0 | 7.0 | 0.00 | 0.00 | 0.00 | 65 | 1015.2 |
| 20260906205108 | 65 | 351 | 2.0 | 7.0 | 0.00 | 0.00 | 0.00 | 64 | 1015.3 |
| 20260906204609 | 65 | 41 | 6.0 | 8.0 | 0.00 | 0.00 | 0.00 | 64 | 1015.3 |
| 20260906204107 | 65 | 48 | 5.0 | 8.0 | 0.00 | 0.00 | 0.00 | 64 | 1015.3 |
| 20260906203608 | 65 | 355 | 3.0 | 8.0 | 0.00 | 0.00 | 0.00 | 65 | 1015.3 |
| 20260906202608 | 65 | 21 | 6.0 | 8.0 | 0.00 | 0.00 | 0.00 | 64 | 1015.6 |
| 20260906202108 | 65 | 11 | 5.0 | 9.0 | 0.00 | 0.00 | 0.00 | 65 | 1015.3 |
| 20260906201608 | 65 | 20 | 5.0 | 7.0 | 0.00 | 0.00 | 0.00 | 65 | 1015.6 |
| 20260906201108 | 65 | 20 | 2.0 | 5.0 | 0.00 | 0.00 | 0.00 | 67 | 1015.6 |
| 20260906200608 | 65 | 8 | 2.0 | 3.0 | 0.00 | 0.00 | 0.00 | 66 | 1015.6 |
| 20260906200108 | 65 | 37 | 2.0 | 6.0 | 0.00 | 0.00 | 0.00 | 67 | 1015.6 |
| 20260906195607 | 65 | 65 | 6.0 | 7.0 | 0.00 | 0.00 | 0.00 | 66 | 1015.6 |
| 20260906195108 | 65 | 77 | 6.0 | 8.0 | 0.00 | 0.00 | 0.00 | 66 | 1015.6 |
| 20260906194607 | 65 | 7 | 5.0 | 8.0 | 0.00 | 0.00 | 0.00 | 67 | 1016.0 |
| 20260906194108 | 64 | 31 | 2.0 | 8.0 | 0.00 | 0.00 | 0.00 | 66 | 1016.0 |
| 20260906193608 | 65 | 8 | 5.0 | 7.0 | 0.00 | 0.00 | 0.00 | 66 | 1015.6 |
| 20260906192109 | 64 | 43 | 8.0 | 12.0 | 0.00 | 0.00 | 0.00 | 68 | 1015.6 |
| 20260906191607 | 64 | 43 | 7.0 | 12.0 | 0.00 | 0.00 | 0.00 | 68 | 1015.6 |
| 20260906190608 | 64 | 51 | 9.0 | 12.0 | 0.00 | 0.00 | 0.00 | 69 | 1015.7 |
| 20260906190108 | 63 | 347 | 7.0 | 12.0 | 0.00 | 0.00 | 0.00 | 69 | 1016.0 |
| 20260906185608 | 63 | 54 | 7.0 | 12.0 | 0.00 | 0.00 | 0.00 | 70 | 1016.0 |
| 20260906185108 | 63 | 22 | 9.0 | 14.0 | 0.00 | 0.00 | 0.00 | 71 | 1016.0 |
| 20260906184608 | 63 | 53 | 10.0 | 13.0 | 0.00 | 0.00 | 0.00 | 71 | 1016.0 |
| 20260906184107 | 63 | 29 | 10.0 | 13.0 | 0.00 | 0.00 | 0.00 | 71 | 1016.0 |
| 20260906183608 | 62 | 46 | 11.0 | 13.0 | 0.00 | 0.00 | 0.00 | 72 | 1016.0 |
| 20260906182608 | 62 | 34 | 8.0 | 12.0 | 0.00 | 0.00 | 0.00 | 72 | 1016.3 |
| 20260906182107 | 61 | 26 | 7.0 | 10.0 | 0.00 | 0.00 | 0.00 | 74 | 1016.3 |
| 20260906180607 | 60 | 15 | 7.0 | 13.0 | 0.00 | 0.00 | 0.00 | 78 | 1016.6 |
| 20260906180108 | 60 | 24 | 7.0 | 15.0 | 0.00 | 0.00 | 0.00 | 80 | 1016.3 |
| 20260906175608 | 59 | 71 | 12.0 | 16.0 | 0.00 | 0.00 | 0.00 | 90 | 1015.6 |
| 20260906175111 | 58 | 41 | 13.0 | 17.0 | 0.00 | 0.00 | 0.00 | 91 | 1015.6 |
| 20260906174607 | 58 | 57 | 10.0 | 16.0 | 0.00 | 0.00 | 0.00 | 92 | 1016.6 |
| 20260906174108 | 57 | 34 | 9.0 | 12.0 | 0.00 | 0.00 | 0.00 | 91 | 1016.6 |
| 20260906173608 | 57 | 355 | 8.0 | 10.0 | 0.00 | 0.00 | 0.00 | 90 | 1016.6 |
| 20260906173108 | 57 | 324 | 7.0 | 12.0 | 0.00 | 0.00 | 0.00 | 89 | 1017.3 |
| 20260906172107 | 58 | 329 | 8.0 | 10.0 | 0.00 | 0.00 | 0.00 | 84 | 1017.7 |
| 20260906171108 | 58 | 308 | 7.0 | 9.0 | 0.00 | 0.00 | 0.00 | 83 | 1017.3 |
| 20260906170608 | 58 | 314 | 7.0 | 10.0 | 0.00 | 0.00 | 0.00 | 83 | 1017.3 |
| 20260906170107 | 58 | 312 | 9.0 | 10.0 | 0.00 | 0.00 | 0.00 | 83 | 1017.3 |
| 20260906165607 | 57 | 310 | 7.0 | 9.0 | 0.00 | 0.00 | 0.00 | 84 | 1017.3 |
| 20260906165108 | 57 | 311 | 6.0 | 8.0 | 0.00 | 0.00 | 0.00 | 84 | 1017.3 |
| 20260906164108 | 57 | 324 | 6.0 | 8.0 | 0.00 | 0.00 | 0.00 | 84 | 1017.7 |
| 20260906163608 | 57 | 304 | 6.0 | 9.0 | 0.00 | 0.00 | 0.00 | 84 | 1017.7 |
| 20260906163107 | 56 | 309 | 8.0 | 10.0 | 0.00 | 0.00 | 0.00 | 84 | 1017.7 |
| 20260906162608 | 56 | 316 | 7.0 | 12.0 | 0.00 | 0.00 | 0.00 | 84 | 1017.7 |
| 20260906162108 | 56 | 235 | 9.0 | 12.0 | 0.00 | 0.00 | 0.00 | 85 | 1017.3 |
| 20260906161607 | 56 | 332 | 9.0 | 12.0 | 0.00 | 0.00 | 0.00 | 85 | 1017.3 |
| 20260906161107 | 56 | 324 | 9.0 | 12.0 | 0.00 | 0.00 | 0.00 | 85 | 1017.7 |
| 20260906160607 | 56 | 337 | 9.0 | 12.0 | 0.00 | 0.00 | 0.00 | 86 | 1017.5 |
| 20260906160107 | 56 | 314 | 9.0 | 14.0 | 0.00 | 0.00 | 0.00 | 87 | 1017.6 |
| 20260906155607 | 55 | 307 | 12.0 | 14.0 | 0.00 | 0.00 | 0.00 | 87 | 1017.7 |
| 20260906155107 | 55 | 315 | 11.0 | 16.0 | 0.00 | 0.00 | 0.00 | 87 | 1017.7 |
| 20260906154607 | 55 | 313 | 11.0 | 16.0 | 0.00 | 0.00 | 0.00 | 87 | 1017.4 |
| 20260906154107 | 55 | 315 | 12.0 | 14.0 | 0.00 | 0.00 | 0.00 | 87 | 1017.7 |
| 20260906153607 | 55 | 301 | 12.0 | 15.0 | 0.00 | 0.00 | 0.00 | 87 | 1017.7 |
| 20260906153107 | 55 | 312 | 11.0 | 17.0 | 0.00 | 0.00 | 0.00 | 88 | 1017.9 |
| 20260906152108 | 55 | 329 | 12.0 | 18.0 | 0.00 | 0.00 | 0.00 | 87 | 1018.0 |
| 20260906151606 | 55 | 325 | 9.0 | 17.0 | 0.00 | 0.00 | 0.00 | 87 | 1018.2 |
| 20260906151107 | 56 | 319 | 13.0 | 16.0 | 0.00 | 0.00 | 0.00 | 85 | 1018.3 |
| 20260906150607 | 57 | 311 | 10.0 | 16.0 | 0.00 | 0.00 | 0.00 | 84 | 1018.3 |
| 20260906150107 | 57 | 311 | 10.0 | 15.0 | 0.00 | 0.00 | 0.00 | 83 | 1018.3 |
| 20260906145607 | 57 | 301 | 10.0 | 17.0 | 0.00 | 0.00 | 0.00 | 83 | 1018.3 |
| 20260906145107 | 57 | 315 | 13.0 | 17.0 | 0.00 | 0.00 | 0.00 | 82 | 1018.3 |
| 20260906144607 | 58 | 301 | 11.0 | 15.0 | 0.00 | 0.00 | 0.00 | 82 | 1018.3 |
| 20260906144108 | 59 | 289 | 12.0 | 17.0 | 0.00 | 0.00 | 0.00 | 80 | 1018.3 |
| 20260906143606 | 60 | 284 | 7.0 | 10.0 | 0.00 | 0.00 | 0.00 | 81 | 1018.3 |
| 20260906143107 | 60 | 278 | 5.0 | 7.0 | 0.00 | 0.00 | 0.00 | 80 | 1018.3 |
| 20260906142607 | 60 | 276 | 3.0 | 5.0 | 0.00 | 0.00 | 0.00 | 81 | 1018.0 |
| 20260906142106 | 60 | 270 | 2.0 | 5.0 | 0.00 | 0.00 | 0.00 | 81 | 1018.3 |
| 20260906141106 | 60 | 300 | 3.0 | 5.0 | 0.00 | 0.00 | 0.00 | 81 | 1018.0 |
| 20260906140607 | 60 | 291 | 3.0 | 5.0 | 0.00 | 0.00 | 0.00 | 81 | 1017.7 |
| 20260906140107 | 60 | 32 | 3.0 | 5.0 | 0.00 | 0.00 | 0.00 | 81 | 1017.7 |
| 20260906135607 | 60 | 308 | 2.0 | 3.0 | 0.00 | 0.00 | 0.00 | 81 | 1017.8 |
| 20260906135106 | 60 | 4 | 1.0 | 3.0 | 0.00 | 0.00 | 0.00 | 81 | 1017.7 |
| 20260906134607 | 60 | 334 | 2.0 | 6.0 | 0.00 | 0.00 | 0.00 | 81 | 1018.0 |
| 20260906134107 | 60 | 324 | 4.0 | 6.0 | 0.00 | 0.00 | 0.00 | 81 | 1018.0 |
| 20260906133607 | 60 | 331 | 4.0 | 6.0 | 0.00 | 0.00 | 0.00 | 81 | 1017.8 |
| 20260906132607 | 59 | 41 | 5.0 | 6.0 | 0.00 | 0.00 | 0.00 | 81 | 1017.7 |
| 20260906132107 | 59 | 45 | 5.0 | 8.0 | 0.00 | 0.00 | 0.00 | 82 | 1017.7 |
| 20260906131606 | 59 | 22 | 6.0 | 9.0 | 0.00 | 0.00 | 0.00 | 82 | 1017.4 |
| 20260906131107 | 59 | 35 | 5.0 | 8.0 | 0.00 | 0.00 | 0.00 | 82 | 1017.7 |
| 20260906130606 | 59 | 19 | 6.0 | 10.0 | 0.00 | 0.00 | 0.00 | 82 | 1017.7 |
| 20260906130107 | 59 | 33 | 7.0 | 10.0 | 0.00 | 0.00 | 0.00 | 82 | 1017.9 |
| 20260906125606 | 58 | 60 | 6.0 | 9.0 | 0.00 | 0.00 | 0.00 | 82 | 1017.7 |
| 20260906125106 | 58 | 15 | 4.0 | 7.0 | 0.00 | 0.00 | 0.00 | 83 | 1017.9 |
| 20260906124607 | 58 | 350 | 3.0 | 6.0 | 0.00 | 0.00 | 0.00 | 83 | 1018.0 |
| 20260906124107 | 58 | 330 | 6.0 | 7.0 | 0.00 | 0.00 | 0.00 | 83 | 1018.0 |
| 20260906123607 | 58 | 339 | 6.0 | 10.0 | 0.00 | 0.00 | 0.00 | 83 | 1018.0 |
| 20260906122607 | 58 | 332 | 6.0 | 9.0 | 0.00 | 0.00 | 0.00 | 83 | 1018.0 |
| 20260906121607 | 58 | 354 | 10.0 | 13.0 | 0.00 | 0.00 | 0.00 | 83 | 1017.3 |
| 20260906121107 | 58 | 341 | 9.0 | 12.0 | 0.00 | 0.00 | 0.00 | 83 | 1017.3 |
| 20260906120607 | 58 | 358 | 9.0 | 13.0 | 0.00 | 0.00 | 0.00 | 83 | 1017.4 |
| 20260906120108 | 58 | 338 | 7.0 | 10.0 | 0.00 | 0.00 | 0.00 | 82 | 1017.7 |
| 20260906115607 | 58 | 339 | 9.0 | 10.0 | 0.00 | 0.00 | 0.00 | 82 | 1017.7 |
| 20260906115106 | 58 | 335 | 9.0 | 12.0 | 0.00 | 0.00 | 0.00 | 82 | 1017.7 |
| 20260906114607 | 58 | 334 | 8.0 | 10.0 | 0.00 | 0.00 | 0.00 | 82 | 1017.7 |
| 20260906114107 | 58 | 338 | 7.0 | 10.0 | 0.00 | 0.00 | 0.00 | 81 | 1017.7 |
| 20260906113606 | 59 | 327 | 7.0 | 10.0 | 0.00 | 0.00 | 0.00 | 81 | 1017.7 |
| 20260906112106 | 59 | 349 | 8.0 | 13.0 | 0.00 | 0.00 | 0.00 | 80 | 1017.9 |
| 20260906111606 | 59 | 349 | 9.0 | 13.0 | 0.00 | 0.00 | 0.00 | 80 | 1017.4 |
| 20260906111106 | 59 | 347 | 8.0 | 12.0 | 0.00 | 0.00 | 0.00 | 80 | 1017.6 |
| 20260906110606 | 59 | 3 | 7.0 | 12.0 | 0.00 | 0.00 | 0.00 | 80 | 1017.7 |
| 20260906110107 | 58 | 350 | 6.0 | 10.0 | 0.00 | 0.00 | 0.00 | 81 | 1017.7 |
| 20260906105606 | 58 | 347 | 9.0 | 14.0 | 0.00 | 0.00 | 0.00 | 81 | 1018.0 |
| 20260906105106 | 58 | 357 | 7.0 | 10.0 | 0.00 | 0.00 | 0.00 | 81 | 1018.0 |
| 20260906104606 | 58 | 353 | 7.0 | 13.0 | 0.00 | 0.00 | 0.00 | 81 | 1018.0 |
| 20260906104105 | 58 | 350 | 9.0 | 12.0 | 0.00 | 0.00 | 0.00 | 81 | 1018.0 |
| 20260906103606 | 58 | 329 | 9.0 | 12.0 | 0.00 | 0.00 | 0.00 | 81 | 1017.9 |
| 20260906103106 | 58 | 333 | 9.0 | 14.0 | 0.00 | 0.00 | 0.00 | 81 | 1017.9 |
| 20260906102606 | 58 | 355 | 10.0 | 16.0 | 0.00 | 0.00 | 0.00 | 81 | 1017.8 |
| 20260906101606 | 58 | 348 | 14.0 | 18.0 | 0.00 | 0.00 | 0.00 | 81 | 1017.7 |
| 20260906100606 | 59 | 0 | 12.0 | 17.0 | 0.00 | 0.00 | 0.00 | 80 | 1018.0 |
| 20260906100106 | 58 | 340 | 12.0 | 18.0 | 0.00 | 0.00 | 0.00 | 80 | 1018.0 |
| 20260906095606 | 58 | 336 | 16.0 | 18.0 | 0.00 | 0.00 | 0.00 | 80 | 1018.0 |
| 20260906095106 | 59 | 345 | 10.0 | 20.0 | 0.00 | 0.00 | 0.00 | 80 | 1017.7 |
| 20260906094605 | 59 | 347 | 15.0 | 17.0 | 0.00 | 0.00 | 0.00 | 79 | 1017.7 |
| 20260906094106 | 59 | 334 | 15.0 | 20.0 | 0.00 | 0.00 | 0.00 | 79 | 1017.7 |
| 20260906093606 | 59 | 337 | 16.0 | 17.0 | 0.00 | 0.00 | 0.00 | 78 | 1017.7 |
| 20260906093106 | 59 | 0 | 12.0 | 14.0 | 0.00 | 0.00 | 0.00 | 78 | 1017.7 |
| 20260906092606 | 59 | 45 | 12.0 | 15.0 | 0.00 | 0.00 | 0.00 | 79 | 1017.7 |
| 20260906092106 | 59 | 341 | 10.0 | 14.0 | 0.00 | 0.00 | 0.00 | 79 | 1018.0 |
| 20260906091605 | 59 | 337 | 6.0 | 9.0 | 0.00 | 0.00 | 0.00 | 80 | 1018.0 |
| 20260906091107 | 59 | 330 | 7.0 | 12.0 | 0.00 | 0.00 | 0.00 | 80 | 1018.0 |
| 20260906090605 | 59 | 331 | 7.0 | 13.0 | 0.00 | 0.00 | 0.00 | 80 | 1018.3 |
| 20260906085605 | 59 | 313 | 5.0 | 8.0 | 0.00 | 0.00 | 0.00 | 80 | 1018.3 |
| 20260906085106 | 59 | 308 | 7.0 | 10.0 | 0.00 | 0.00 | 0.00 | 80 | 1018.5 |
| 20260906084605 | 59 | 312 | 9.0 | 12.0 | 0.00 | 0.00 | 0.00 | 79 | 1018.5 |
| 20260906084107 | 59 | 316 | 7.0 | 12.0 | 0.00 | 0.00 | 0.00 | 78 | 1018.7 |
| 20260906083605 | 59 | 326 | 8.0 | 9.0 | 0.00 | 0.00 | 0.00 | 77 | 1018.7 |
| 20260906083105 | 59 | 324 | 6.0 | 12.0 | 0.00 | 0.00 | 0.00 | 77 | 1018.7 |
| 20260906082606 | 59 | 324 | 6.0 | 13.0 | 0.00 | 0.00 | 0.00 | 77 | 1018.7 |
| 20260906082105 | 59 | 333 | 8.0 | 12.0 | 0.00 | 0.00 | 0.00 | 77 | 1018.7 |
| 20260906081105 | 59 | 336 | 5.0 | 10.0 | 0.00 | 0.00 | 0.00 | 79 | 1018.7 |
| 20260906080605 | 58 | 327 | 2.0 | 6.0 | 0.00 | 0.00 | 0.00 | 81 | 1018.8 |
| 20260906080105 | 57 | 316 | 2.0 | 3.0 | 0.00 | 0.00 | 0.00 | 82 | 1018.9 |
| 20260906075605 | 57 | 307 | 2.0 | 3.0 | 0.00 | 0.00 | 0.00 | 82 | 1018.7 |
| 20260906075105 | 57 | 305 | 2.0 | 2.0 | 0.00 | 0.00 | 0.00 | 82 | 1018.7 |
| 20260906074606 | 57 | 304 | 1.0 | 2.0 | 0.00 | 0.00 | 0.00 | 82 | 1018.9 |
| 20260906074105 | 57 | 296 | 2.0 | 8.0 | 0.00 | 0.00 | 0.00 | 81 | 1018.7 |
| 20260906073106 | 57 | 317 | 3.0 | 6.0 | 0.00 | 0.00 | 0.00 | 81 | 1018.8 |
| 20260906072605 | 58 | 332 | 5.0 | 8.0 | 0.00 | 0.00 | 0.00 | 79 | 1018.8 |
| 20260906072106 | 58 | 327 | 7.0 | 10.0 | 0.00 | 0.00 | 0.00 | 79 | 1018.9 |
| 20260906071605 | 59 | 328 | 8.0 | 9.0 | 0.00 | 0.00 | 0.00 | 78 | 1019.0 |
| 20260906071105 | 59 | 345 | 8.0 | 9.0 | 0.00 | 0.00 | 0.00 | 78 | 1018.7 |
| 20260906070605 | 58 | 336 | 8.0 | 9.0 | 0.00 | 0.00 | 0.00 | 78 | 1018.8 |
| 20260906070105 | 58 | 347 | 7.0 | 9.0 | 0.00 | 0.00 | 0.00 | 79 | 1019.0 |
| 20260906065605 | 58 | 329 | 7.0 | 10.0 | 0.00 | 0.00 | 0.00 | 80 | 1018.9 |
| 20260906065105 | 58 | 335 | 5.0 | 9.0 | 0.00 | 0.00 | 0.00 | 81 | 1019.0 |
| 20260906064606 | 58 | 314 | 3.0 | 9.0 | 0.00 | 0.00 | 0.00 | 80 | 1019.1 |
| 20260906064105 | 58 | 316 | 6.0 | 8.0 | 0.00 | 0.00 | 0.00 | 80 | 1019.1 |
| 20260906063605 | 59 | 306 | 6.0 | 7.0 | 0.00 | 0.00 | 0.00 | 79 | 1019.3 |
| 20260906063106 | 59 | 306 | 6.0 | 9.0 | 0.00 | 0.00 | 0.00 | 79 | 1019.3 |
| 20260906062605 | 59 | 319 | 6.0 | 7.0 | 0.00 | 0.00 | 0.00 | 78 | 1019.6 |
| 20260906061605 | 59 | 319 | 6.0 | 10.0 | 0.00 | 0.00 | 0.00 | 78 | 1019.5 |
| 20260906061105 | 58 | 322 | 7.0 | 10.0 | 0.00 | 0.00 | 0.00 | 78 | 1019.3 |
| 20260906060605 | 58 | 294 | 7.0 | 8.0 | 0.00 | 0.00 | 0.00 | 78 | 1019.3 |
| 20260906060105 | 58 | 294 | 7.0 | 9.0 | 0.00 | 0.00 | 0.00 | 78 | 1019.3 |
| 20260906055606 | 58 | 309 | 9.0 | 10.0 | 0.00 | 0.00 | 0.00 | 77 | 1019.3 |
| 20260906054105 | 59 | 339 | 10.0 | 12.0 | 0.00 | 0.00 | 0.00 | 75 | 1019.2 |
| 20260906053105 | 59 | 348 | 12.0 | 14.0 | 0.00 | 0.00 | 0.00 | 74 | 1019.0 |
| 20260906052605 | 59 | 351 | 12.0 | 13.0 | 0.00 | 0.00 | 0.00 | 74 | 1019.0 |
| 20260906051605 | 59 | 334 | 6.0 | 9.0 | 0.00 | 0.00 | 0.00 | 74 | 1018.7 |
| 20260906050104 | 59 | 355 | 8.0 | 14.0 | 0.00 | 0.00 | 0.00 | 73 | 1018.7 |
| 20260906045105 | 59 | 351 | 13.0 | 16.0 | 0.00 | 0.00 | 0.00 | 73 | 1018.7 |
| 20260906044605 | 60 | 1 | 13.0 | 16.0 | 0.00 | 0.00 | 0.00 | 72 | 1018.3 |
| 20260906044105 | 60 | 2 | 12.0 | 20.0 | 0.00 | 0.00 | 0.00 | 72 | 1018.7 |
| 20260906043605 | 60 | 338 | 12.0 | 15.0 | 0.00 | 0.00 | 0.00 | 73 | 1018.8 |
| 20260906042605 | 60 | 314 | 12.0 | 17.0 | 0.00 | 0.00 | 0.00 | 73 | 1018.9 |
| 20260906042105 | 59 | 329 | 12.0 | 17.0 | 0.00 | 0.00 | 0.00 | 73 | 1018.2 |
| 20260906041605 | 59 | 347 | 13.0 | 16.0 | 0.00 | 0.00 | 0.00 | 73 | 1018.2 |
| 20260906041105 | 60 | 345 | 14.0 | 16.0 | 0.00 | 0.00 | 0.00 | 72 | 1017.7 |
| 20260906040605 | 60 | 327 | 15.0 | 20.0 | 0.00 | 0.00 | 0.00 | 70 | 1017.7 |
| 20260906040105 | 60 | 331 | 13.0 | 23.0 | 0.00 | 0.00 | 0.00 | 70 | 1017.7 |
| 20260906035604 | 60 | 329 | 16.0 | 23.0 | 0.00 | 0.00 | 0.00 | 69 | 1017.7 |
| 20260906035105 | 60 | 341 | 14.0 | 20.0 | 0.00 | 0.00 | 0.00 | 68 | 1017.8 |
| 20260906034604 | 60 | 357 | 13.0 | 18.0 | 0.00 | 0.00 | 0.00 | 68 | 1018.0 |
| 20260906034105 | 61 | 352 | 15.0 | 17.0 | 0.00 | 0.00 | 0.00 | 66 | 1018.2 |
| 20260906033605 | 61 | 352 | 15.0 | 21.0 | 0.00 | 0.00 | 0.00 | 66 | 1018.0 |
| 20260906033104 | 61 | 351 | 15.0 | 21.0 | 0.00 | 0.00 | 0.00 | 65 | 1018.2 |
| 20260906032605 | 62 | 326 | 13.0 | 15.0 | 0.00 | 0.00 | 0.00 | 62 | 1018.3 |
| 20260906032104 | 62 | 326 | 13.0 | 17.0 | 0.00 | 0.00 | 0.00 | 62 | 1018.3 |
| 20260906031604 | 62 | 332 | 13.0 | 20.0 | 0.00 | 0.00 | 0.00 | 62 | 1018.0 |
| 20260906031105 | 62 | 333 | 18.0 | 20.0 | 0.00 | 0.00 | 0.00 | 62 | 1018.3 |
| 20260906030604 | 62 | 342 | 12.0 | 16.0 | 0.00 | 0.00 | 0.00 | 61 | 1018.8 |
| 20260906024105 | 62 | 14 | 17.0 | 23.0 | 0.00 | 0.00 | 0.00 | 62 | 1016.8 |
| 20260906023105 | 63 | 24 | 15.0 | 20.0 | 0.00 | 0.00 | 0.00 | 61 | 1017.0 |
| 20260906022106 | 63 | 22 | 14.0 | 20.0 | 0.00 | 0.00 | 0.00 | 61 | 1016.8 |
| 20260906020604 | 64 | 56 | 9.0 | 15.0 | 0.00 | 0.00 | 0.00 | 58 | 1016.6 |
| 20260906020104 | 64 | 357 | 10.0 | 17.0 | 0.00 | 0.00 | 0.00 | 58 | 1016.6 |
| 20260906015604 | 65 | 13 | 14.0 | 18.0 | 0.00 | 0.00 | 0.00 | 56 | 1016.6 |
| 20260906015104 | 65 | 15 | 12.0 | 18.0 | 0.00 | 0.00 | 0.00 | 56 | 1016.6 |
| 20260906014604 | 66 | 10 | 13.0 | 14.0 | 0.00 | 0.00 | 0.00 | 53 | 1016.6 |
| 20260906014104 | 66 | 10 | 13.0 | 14.0 | 0.00 | 0.00 | 0.00 | 53 | 1016.6 |
| 20260906013604 | 66 | 3 | 10.0 | 14.0 | 0.00 | 0.00 | 0.00 | 53 | 1016.6 |
| 20260906013104 | 67 | 8 | 9.0 | 14.0 | 0.00 | 0.00 | 0.00 | 52 | 1016.6 |
| 20260906012604 | 67 | 24 | 10.0 | 14.0 | 0.00 | 0.00 | 0.00 | 51 | 1016.8 |
| 20260906011604 | 68 | 8 | 13.0 | 17.0 | 0.00 | 0.00 | 0.00 | 50 | 1016.6 |
| 20260906010604 | 69 | 21 | 13.0 | 17.0 | 0.00 | 0.00 | 0.00 | 48 | 1016.6 |
| 20260906010104 | 69 | 4 | 10.0 | 15.0 | 0.00 | 0.00 | 0.00 | 47 | 1016.6 |
| 20260906005604 | 70 | 7 | 12.0 | 16.0 | 0.00 | 0.00 | 0.00 | 46 | 1017.0 |
| 20260906005104 | 70 | 2 | 10.0 | 15.0 | 0.00 | 0.00 | 0.00 | 46 | 1017.0 |
| 20260906004604 | 70 | 2 | 12.0 | 15.0 | 0.00 | 0.00 | 0.00 | 46 | 1017.0 |
| 20260906004104 | 70 | 7 | 12.0 | 17.0 | 0.00 | 0.00 | 0.00 | 45 | 1016.8 |
| 20260906003603 | 71 | 357 | 10.0 | 16.0 | 0.00 | 0.00 | 0.00 | 43 | 1016.6 |
| 20260906003104 | 73 | 17 | 14.0 | 20.0 | 0.00 | 0.00 | 0.00 | 42 | 1016.8 |
| 20260906002104 | 73 | 17 | 13.0 | 17.0 | 0.00 | 0.00 | 0.00 | 39 | 1017.0 |
| 20260906001604 | 74 | 347 | 13.0 | 16.0 | 0.00 | 0.00 | 0.00 | 38 | 1016.8 |
| 20260906001103 | 74 | 15 | 13.0 | 17.0 | 0.00 | 0.00 | 0.00 | 38 | 1016.6 |
| 20260906000604 | 74 | 3 | 13.0 | 17.0 | 0.00 | 0.00 | 0.00 | 38 | 1016.6 |
| 20260906000104 | 74 | 349 | 13.0 | 18.0 | 0.00 | 0.00 | 0.00 | 38 | 1017.0 |
| 20260905235603 | 73 | 18 | 10.0 | 15.0 | 0.00 | 0.00 | 0.00 | 38 | 1017.0 |
| 20260905235109 | 73 | 8 | 10.0 | 16.0 | 0.00 | 0.00 | 0.00 | 38 | 1017.0 |
| 20260905234609 | 74 | 349 | 10.0 | 17.0 | 0.00 | 0.00 | 0.00 | 38 | 1017.0 |
| 20260905234109 | 76 | 354 | 12.0 | 16.0 | 0.00 | 0.00 | 0.00 | 36 | 1017.0 |
| 20260905233608 | 74 | 355 | 13.0 | 16.0 | 0.00 | 0.00 | 0.00 | 38 | 1017.0 |
| 20260905233109 | 75 | 338 | 6.0 | 7.0 | 0.00 | 0.00 | 0.00 | 32 | 1017.0 |
| 20260905232609 | 75 | 350 | 5.0 | 9.0 | 0.00 | 0.00 | 0.00 | 33 | 1017.0 |
| 20260905232108 | 77 | 36 | 8.0 | 9.0 | 0.00 | 0.00 | 0.00 | 31 | 1017.2 |
| 20260905231609 | 77 | 36 | 8.0 | 12.0 | 0.00 | 0.00 | 0.00 | 31 | 1017.0 |